TimePDT,TemperatureF,Dew PointF,Humidity,Sea Level PressureIn,VisibilityMPH,Wind Direction,Wind SpeedMPH,Gust SpeedMPH,PrecipitationIn,Events,Conditions,WindDirDegrees,DateUTC
12:15 AM,66.2,53.6,64,29.93,10.0,ENE,8.1,-,N/A,,Clear,70,2013-08-09 07:15:00
12:35 AM,64.4,53.6,68,29.93,10.0,East,9.2,-,N/A,,Clear,80,2013-08-09 07:35:00
12:55 AM,64.4,51.8,64,29.93,10.0,ENE,8.1,-,N/A,,Clear,60,2013-08-09 07:55:00
1:15 AM,66.2,51.8,60,29.93,10.0,NE,11.5,-,N/A,,Clear,40,2013-08-09 08:15:00
1:35 AM,66.2,51.8,60,29.93,10.0,NE,10.4,-,N/A,,Clear,40,2013-08-09 08:35:00
1:55 AM,66.2,51.8,60,29.93,10.0,NE,10.4,-,N/A,,Clear,50,2013-08-09 08:55:00
2:15 AM,66.2,51.8,60,29.93,10.0,NNE,11.5,-,N/A,,Clear,20,2013-08-09 09:15:00
2:35 AM,66.2,53.6,64,29.94,10.0,NNE,13.8,-,N/A,,Clear,30,2013-08-09 09:35:00
2:55 AM,66.2,51.8,60,29.94,10.0,NNE,11.5,-,N/A,,Clear,30,2013-08-09 09:55:00
3:15 AM,64.4,53.6,68,29.93,10.0,NNE,11.5,-,N/A,,Clear,20,2013-08-09 10:15:00
3:35 AM,66.2,53.6,64,29.93,10.0,NNE,11.5,-,N/A,,Clear,30,2013-08-09 10:35:00
3:55 AM,66.2,53.6,64,29.94,10.0,NNE,11.5,-,N/A,,Clear,20,2013-08-09 10:55:00
4:15 AM,66.2,53.6,64,29.93,10.0,NNE,15.0,-,N/A,,Clear,20,2013-08-09 11:15:00
4:35 AM,66.2,53.6,64,29.93,10.0,NNE,13.8,-,N/A,,Clear,20,2013-08-09 11:35:00
4:55 AM,66.2,53.6,64,29.93,10.0,NNE,16.1,-,N/A,,Clear,20,2013-08-09 11:55:00
5:15 AM,66.2,51.8,60,29.94,10.0,NNE,15.0,-,N/A,,Clear,20,2013-08-09 12:15:00
5:35 AM,66.2,53.6,64,29.93,10.0,NNE,15.0,-,N/A,,Clear,20,2013-08-09 12:35:00
5:55 AM,66.2,53.6,64,29.94,10.0,NNE,15.0,-,N/A,,Clear,30,2013-08-09 12:55:00
6:15 AM,66.2,51.8,60,29.95,10.0,NNE,12.7,-,N/A,,Clear,20,2013-08-09 13:15:00
6:35 AM,66.2,53.6,64,29.95,10.0,NNE,16.1,-,N/A,,Clear,30,2013-08-09 13:35:00
6:55 AM,68.0,53.6,60,29.95,10.0,NNE,16.1,-,N/A,,Clear,30,2013-08-09 13:55:00
7:15 AM,69.8,53.6,56,29.95,10.0,NNE,17.3,-,N/A,,Clear,30,2013-08-09 14:15:00
7:35 AM,69.8,53.6,56,29.95,10.0,NNE,17.3,21.9,N/A,,Clear,30,2013-08-09 14:35:00
7:55 AM,71.6,53.6,53,29.95,10.0,NNE,19.6,-,N/A,,Clear,30,2013-08-09 14:55:00
8:15 AM,71.6,55.4,57,29.95,10.0,NNE,17.3,23.0,N/A,,Clear,30,2013-08-09 15:15:00
8:35 AM,73.4,55.4,53,29.95,10.0,NNE,15.0,21.9,N/A,,Clear,30,2013-08-09 15:35:00
8:55 AM,75.2,57.2,53,29.95,10.0,NNE,15.0,-,N/A,,Clear,30,2013-08-09 15:55:00
9:15 AM,75.2,55.4,50,29.95,10.0,NNE,17.3,21.9,N/A,,Clear,20,2013-08-09 16:15:00
9:35 AM,78.8,55.4,44,29.95,10.0,NNE,17.3,-,N/A,,Clear,20,2013-08-09 16:35:00
9:55 AM,78.8,57.2,47,29.95,10.0,NNE,18.4,-,N/A,,Clear,20,2013-08-09 16:55:00
10:15 AM,78.8,57.2,47,29.95,10.0,NNE,13.8,-,N/A,,Clear,30,2013-08-09 17:15:00
10:35 AM,80.6,55.4,42,29.94,10.0,NNE,13.8,-,N/A,,Clear,30,2013-08-09 17:35:00
10:55 AM,82.4,55.4,39,29.94,10.0,NE,17.3,-,N/A,,Clear,40,2013-08-09 17:55:00
11:15 AM,82.4,57.2,42,29.93,10.0,NE,15.0,-,N/A,,Clear,40,2013-08-09 18:15:00
11:35 AM,84.2,57.2,40,29.93,10.0,NNE,12.7,-,N/A,,Clear,20,2013-08-09 18:35:00
11:55 AM,84.2,55.4,37,29.93,10.0,NNE,11.5,-,N/A,,Clear,30,2013-08-09 18:55:00
12:15 PM,86.0,57.2,37,29.92,10.0,NE,10.4,-,N/A,,Clear,50,2013-08-09 19:15:00
12:35 PM,86.0,55.4,35,29.92,10.0,NNE,8.1,-,N/A,,Clear,30,2013-08-09 19:35:00
12:55 PM,87.8,57.2,35,29.92,10.0,NE,6.9,-,N/A,,Clear,40,2013-08-09 19:55:00
1:15 PM,87.8,57.2,35,29.91,10.0,East,4.6,-,N/A,,Clear,80,2013-08-09 20:15:00
1:35 PM,87.8,57.2,35,29.91,9.0,Calm,Calm,-,N/A,,Clear,0,2013-08-09 20:35:00
1:55 PM,87.8,57.2,35,29.90,10.0,Calm,Calm,-,N/A,,Clear,0,2013-08-09 20:55:00
2:15 PM,89.6,57.2,33,29.89,7.0,Calm,Calm,-,N/A,,Clear,0,2013-08-09 21:15:00
2:35 PM,89.6,55.4,31,29.88,9.0,East,8.1,-,N/A,,Clear,80,2013-08-09 21:35:00
2:55 PM,91.4,57.2,31,29.87,10.0,NNE,9.2,-,N/A,,Clear,30,2013-08-09 21:55:00
3:15 PM,89.6,55.4,31,29.87,10.0,NNE,11.5,-,N/A,,Clear,20,2013-08-09 22:15:00
3:35 PM,89.6,57.2,33,29.86,10.0,NE,11.5,-,N/A,,Clear,50,2013-08-09 22:35:00
3:55 PM,89.6,57.2,33,29.86,10.0,NNE,12.7,-,N/A,,Clear,20,2013-08-09 22:55:00
4:15 PM,89.6,57.2,33,29.85,10.0,NNE,13.8,-,N/A,,Clear,30,2013-08-09 23:15:00
4:35 PM,89.6,55.4,31,29.84,10.0,NNE,12.7,-,N/A,,Clear,30,2013-08-09 23:35:00
4:55 PM,89.6,55.4,31,29.84,10.0,NNE,12.7,-,N/A,,Clear,30,2013-08-09 23:55:00
5:15 PM,89.6,55.4,31,29.83,10.0,NNE,12.7,-,N/A,,Clear,30,2013-08-10 00:15:00
5:35 PM,87.8,55.4,33,29.83,10.0,NE,10.4,-,N/A,,Clear,40,2013-08-10 00:35:00
5:55 PM,87.8,55.4,33,29.84,10.0,NNE,9.2,-,N/A,,Clear,30,2013-08-10 00:55:00
6:15 PM,87.8,55.4,33,29.84,10.0,NNE,11.5,-,N/A,,Clear,30,2013-08-10 01:15:00
6:35 PM,86.0,53.6,33,29.83,10.0,NNE,12.7,-,N/A,,Clear,30,2013-08-10 01:35:00
6:55 PM,84.2,55.4,37,29.84,10.0,NNE,9.2,-,N/A,,Clear,30,2013-08-10 01:55:00
7:15 PM,82.4,57.2,42,29.84,10.0,NNE,8.1,-,N/A,,Clear,20,2013-08-10 02:15:00
7:35 PM,80.6,57.2,45,29.84,10.0,NNE,6.9,-,N/A,,Clear,20,2013-08-10 02:35:00
7:55 PM,80.6,57.2,45,29.85,10.0,ENE,3.5,-,N/A,,Clear,70,2013-08-10 02:55:00
8:15 PM,78.8,57.2,47,29.84,10.0,NE,6.9,-,N/A,,Clear,40,2013-08-10 03:15:00
8:35 PM,78.8,57.2,47,29.85,10.0,NE,5.8,-,N/A,,Clear,40,2013-08-10 03:35:00
8:55 PM,77.0,48.2,36,29.85,10.0,NE,6.9,-,N/A,,Clear,40,2013-08-10 03:55:00
9:15 PM,77.0,60.8,57,29.85,10.0,NE,8.1,-,N/A,,Clear,40,2013-08-10 04:15:00
9:35 PM,77.0,60.8,57,29.85,10.0,NE,9.2,-,N/A,,Clear,50,2013-08-10 04:35:00
9:55 PM,75.2,59.0,57,29.85,10.0,ENE,9.2,-,N/A,,Clear,60,2013-08-10 04:55:00
10:15 PM,75.2,62.6,65,29.88,10.0,ESE,8.1,-,N/A,,Scattered Clouds,120,2013-08-10 05:15:00
10:35 PM,77.0,60.8,57,29.87,10.0,Calm,Calm,-,N/A,,Scattered Clouds,0,2013-08-10 05:35:00
10:55 PM,75.2,60.8,61,29.87,10.0,NNW,4.6,-,N/A,Thunderstorm,Thunderstorm,340,2013-08-10 05:55:00
11:15 PM,77.0,60.8,57,29.89,10.0,East,4.6,-,N/A,Thunderstorm,Thunderstorm,80,2013-08-10 06:15:00
11:35 PM,77.0,59.0,54,29.90,10.0,Calm,Calm,-,N/A,Thunderstorm,Thunderstorm,0,2013-08-10 06:35:00
11:55 PM,71.6,62.6,73,29.93,10.0,West,13.8,21.9,0.04,Thunderstorm,Thunderstorm,270,2013-08-10 06:55:00